Simultaneous Nadir Overpasses (SNOs) Predictions

Prediction of SNOs between METOP-B and NOAA-19 Satellite Orbit:

Table of predicted SNOs for the next 14.0 days since TLE Epoch: 4/26/2019
Index Date (METOP-B) Time (METOP-B) Lat,Lon (METOP-B) SZA (METOP-B ) Date (NOAA-19) Time (NOAA-19) Lat,Lon (NOAA-19) SZA (NOAA-19 ) Distance(km) Time Diff (sec)
1 04/30/2019 10:26:47 -79.20,-141.33 115.17 04/30/2019 10:25:34 -79.18,-141.31 115.21 2.80 73
2 04/30/2019 11:17:28 79.18, 25.83 64.80 04/30/2019 11:16:40 79.18, 25.92 64.79 1.97 48
3 04/30/2019 12:08:09 -79.19,-166.77 115.21 04/30/2019 12:07:35 -79.18,-166.84 115.22 1.65 34
4 04/30/2019 12:58:50 79.16, 0.39 64.76 04/30/2019 12:58:41 79.18, 0.39 64.77 1.79 9
5 04/30/2019 13:49:31 -79.17, 167.79 115.25 04/30/2019 13:49:35 -79.15, 167.90 115.26 3.29 4
6 04/30/2019 14:40:12 79.15, -25.05 64.72 04/30/2019 14:40:41 79.15, -24.88 64.73 3.68 29
7 04/30/2019 15:30:53 -79.16, 142.35 115.29 04/30/2019 15:31:36 -79.15, 142.37 115.28 0.60 43
8 04/30/2019 16:21:34 79.14, -50.49 64.68 04/30/2019 16:22:42 79.16, -50.41 64.71 2.81 68




NCC Satellite Simultaneous Nadir Overpasses (SNOs) Prediction Service
